This demonstration page uses our WeatherBlox Daily Observations layout. Learn more.

Left ArrowRight Arrow

41.12389, -100.76542

Hourly Observations for December 19, 2016

Temp ( °F °C ) Dew Point ( °F °C ) Humidity (%) Winds ( mph kmh ) Pressure ( in mb ) Visibility ( mi km ) Precip ( " mm )
12:53 am 00:53 Clear 0 -17.8 -6 -21.1 76 76 Calm 30.57 1035 10 16 0.00 0.00
1:53 am 01:53 Clear 0 -17.8 -6 -21.1 76 76 NW 7 11 30.56 1035 10 16 0.00 0.00
2:53 am 02:53 Clear 2 -16.7 -3 -19.4 80 80 Calm 30.55 1035 10 16 0.00 0.00
3:53 am 03:53 Clear 0 -17.8 -6 -21.1 76 76 NW 3 6 30.54 1034 10 16 0.00 0.00
4:53 am 04:53 Clear 3 -16.1 -2 -18.9 79 79 W 6 9 30.51 1033 10 16 0.00 0.00
5:53 am 05:53 Clear 2 -16.7 -4 -20 76 76 NW 6 9 30.53 1034 10 16 0.00 0.00
6:53 am 06:53 Clear 2 -16.7 -3 -19.4 80 80 W 7 11 30.57 1035 10 16 0.00 0.00
7:53 am 07:53 Clear 5 -15 -1 -18.3 76 76 SSW 6 9 30.54 1034 10 16 0.00 0.00
8:53 am 08:53 Sunny 10 -12.2 2 -16.7 69 69 WNW 7 11 30.53 1034 10 16 0.00 0.00
9:53 am 09:53 Sunny 15 -9.4 5 -15 64 64 WNW 5 7 30.53 1034 10 16 0.00 0.00
10:53 am 10:53 Sunny 25 -3.9 8 -13.3 48 48 WNW 3 6 30.50 1033 10 16 0.00 0.00
11:53 am 11:53 Sunny 33 0.6 11 -11.7 40 40 SW 6 9 30.41 1030 10 16 0.00 0.00
12:53 pm 12:53 Sunny 40 4.4 15 -9.4 36 36 SSW 10 17 30.33 1027 10 16 0.00 0.00
1:53 pm 13:53 Sunny 45 7.2 14 -10 29 29 SW 14 22 30.29 1026 10 16 0.00 0.00
2:53 pm 14:53 Sunny 45 7.2 12 -11.1 26 26 SW 13 20 30.24 1024 10 16 0.00 0.00
3:53 pm 15:53 Sunny 44 6.7 13 -10.6 28 28 SSW 13 20 30.24 1024 10 16 0.00 0.00
4:53 pm 16:53 Sunny 40 4.4 13 -10.6 33 33 S 13 20 30.19 1023 10 16 0.00 0.00
5:53 pm 17:53 Clear 36 2.2 13 -10.6 39 39 S 7 11 30.20 1023 10 16 0.00 0.00
6:53 pm 18:53 Clear 35 1.7 15 -9.4 44 44 SSW 7 11 30.18 1022 10 16 0.00 0.00
7:53 pm 19:53 Clear 35 1.7 17 -8.3 48 48 S 10 17 30.16 1021 10 16 0.00 0.00
8:53 pm 20:53 Clear 35 1.7 18 -7.8 50 50 W 6 9 30.14 1021 10 16 0.00 0.00
9:53 pm 21:53 Clear 28 -2.2 14 -10 56 56 NW 7 11 30.16 1022 10 16 0.00 0.00
10:53 pm 22:53 Clear 26 -3.3 14 -10 60 60 WNW 3 6 30.15 1021 10 16 0.00 0.00
11:53 pm 23:53 Clear 26 -3.3 16 -8.9 66 66 WNW 7 11 30.16 1021 10 16 0.00 0.00

Powered by AerisWeather